Location: Arbon
(43.0005°N, 0.7472°E)
Time: 17:12:10
(UTC+00:00)

SL-4 R/B - Pass Details

Date: 07 August 2020
Orbit: 428 x 665 km, 51.6° (Epoch: 23 September)

Event Time Altitude Azimuth Distance (km) Brightness Sun altitude
Exits shadow 01:57:51 21° 335° (NNW) 1,044 3.7 -25.1°
Maximum altitude 01:59:24 30° 19° (NNE) 804 3.4 -24.9°
Drops below altitude 10° 02:02:27 10° 83° (E) 1,523 4.7 -24.6°
Sets 02:04:43 0° 95° (E) 2,389 5.6 -24.4°
